{"data":{"norad_id":49768,"intl_designator":"2021-115AW","name":"STARLINK-3196","alt_names":[],"object_type":"PAYLOAD","status":"ACTIVE","operator":null,"country":"US","launch_date":"2021-12-02","launch_site_code":"AFETR","launch_vehicle":null,"mission":null,"orbit_class":"UNKNOWN","rcs_meters":null,"size_class":null,"mass_kg":null,"dimensions":null,"purposes":["comms"],"wikipedia_slug":null,"has_3d_model":false,"image_url":null,"decayed_at":null,"tle_current":{"epoch":"2026-09-19T18:35:31.786944Z","epoch_age_seconds":107916,"freshness":"FRESH","line1":"1 49768U 21115AW  26262.77467346 -.00000770  00000+0 -11660-4 0  9999","line2":"2 49768  53.1613 332.7711 0001264  88.0045 272.1102 15.34387991265184","mean_motion":15.34387991,"eccentricity":0.0001264,"inclination_deg":53.1613,"raan_deg":332.7711,"arg_perigee_deg":88.0045,"mean_anomaly_deg":272.1102,"bstar":-1.166e-5,"rev_number":26518,"period_min":93.848492587687,"perigee_km":461.87424700066,"apogee_km":463.60362043671,"semimajor_km":6840.8759337187,"source":"CELESTRAK","updated_at":"2026-09-20T09:00:39.412148Z"}}}